Location: Strawberry
(45.6646°N, 111.9596°W)
Time: 16:24:40
(UTC+00:00)

SR - All Passes

Search period start: 26 September 2022 00:00
Search period end: 06 October 2022 00:00
Orbit: 573 x 879 km, 66.7° (Epoch: 26 September)

Date Brightness Start Highest point End Pass type
(mag) Time Alt. Az. Time Alt. Az. Time Alt. Az.
26 Sep - 05:42:50 10° SSW 05:48:35 59° ESE 05:54:24 10° NE visible
26 Sep - 07:25:48 10° WSW 07:31:02 32° NW 07:36:16 10° NNE visible
26 Sep - 09:13:09 10° NW 09:15:01 11° NNW 09:16:52 10° N visible
26 Sep - 12:40:49 10° N 12:44:36 18° NNE 12:48:10 10° ENE visible
26 Sep - 14:22:13 10° NNW 14:27:45 71° NE 14:32:46 10° SE daylight
26 Sep - 16:05:35 10° WNW 16:09:06 18° WSW 16:12:25 10° SSW daylight
27 Sep - 04:53:28 10° S 04:58:36 33° ESE 05:03:48 10° NE night (unlit)
27 Sep - 06:34:47 10° SW 06:40:30 51° NW 06:46:15 10° NNE visible
27 Sep - 08:20:32 10° WNW 08:23:58 16° NNW 08:27:23 10° N visible
27 Sep - 11:51:11 10° N 11:53:37 13° NNE 11:55:59 10° NE visible
27 Sep - 13:32:07 10° NNW 13:37:21 40° NE 13:42:08 10° ESE daylight
27 Sep - 15:14:27 10° NW 15:19:20 35° WSW 15:23:49 10° S daylight
28 Sep - 04:05:04 10° SE 04:08:48 18° ESE 04:12:35 10° ENE night (unlit)
28 Sep - 05:44:17 10° SSW 05:50:10 86° WNW 05:56:07 10° NNE visible
28 Sep - 07:28:32 10° W 07:33:06 22° NW 07:37:37 10° NNE visible
28 Sep - 12:42:09 10° NNW 12:46:43 25° NE 12:50:59 10° E visible
28 Sep - 14:23:54 10° NW 14:29:21 68° WSW 14:34:16 10° SSE daylight
29 Sep - 04:54:19 10° SSW 05:00:01 55° ESE 05:05:47 10° NE night (unlit)
29 Sep - 06:37:05 10° WSW 06:42:24 34° NW 06:47:42 10° NNE visible
29 Sep - 08:24:13 10° NW 08:26:18 12° NNW 08:28:24 10° N visible
29 Sep - 11:52:19 10° N 11:55:54 17° NNE 11:59:18 10° ENE visible
29 Sep - 13:33:39 10° NNW 13:39:08 65° NE 13:44:07 10° SE daylight
29 Sep - 15:16:49 10° WNW 15:20:33 20° WSW 15:24:04 10° SSW daylight
30 Sep - 04:05:03 10° SSE 04:10:03 30° ESE 04:15:07 10° NE night (unlit)
30 Sep - 05:46:06 10° SW 05:51:53 55° NW 05:57:40 10° NNE visible
30 Sep - 07:31:40 10° WNW 07:35:16 16° NNW 07:38:50 10° N visible
30 Sep - 11:02:45 10° N 11:04:54 12° NNE 11:06:59 10° NE visible
30 Sep - 12:43:33 10° NNW 12:48:42 37° NE 12:53:24 10° ESE visible
30 Sep - 14:25:48 10° NW 14:30:45 38° WSW 14:35:18 10° S daylight
01 Oct - 03:16:50 10° SE 03:20:17 16° ESE 03:23:44 10° ENE night (unlit)
01 Oct - 04:55:41 10° SSW 05:01:34 89° SE 05:07:30 10° NNE night (unlit)
01 Oct - 06:39:45 10° W 06:44:26 23° NW 06:49:03 10° NNE visible
01 Oct - 11:53:36 10° NNW 11:58:02 24° NE 12:02:10 10° E visible
01 Oct - 13:35:18 10° NW 13:40:44 75° WSW 13:45:40 10° SSE daylight
01 Oct - 15:21:28 10° W 15:21:38 10° W 15:21:48 10° WSW daylight
02 Oct - 04:05:48 10° S 04:11:26 50° ESE 04:17:08 10° NE night (unlit)
02 Oct - 05:48:20 10° WSW 05:53:45 36° NW 05:59:07 10° NNE visible
02 Oct - 07:35:17 10° NW 07:37:35 12° NNW 07:39:52 10° N visible
02 Oct - 11:03:49 10° N 11:07:11 16° NNE 11:10:25 10° ENE visible
02 Oct - 12:45:04 10° NNW 12:50:30 60° NE 12:55:26 10° SE visible
02 Oct - 14:28:05 10° WNW 14:32:00 21° WSW 14:35:41 10° SSW daylight
03 Oct - 03:16:38 10° SSE 03:21:30 28° ESE 03:26:25 10° NE night (unlit)
03 Oct - 04:57:27 10° SW 05:03:16 59° NW 05:09:05 10° NNE night (unlit)
03 Oct - 06:42:49 10° WNW 06:46:34 17° NNW 06:50:17 10° N visible
03 Oct - 10:14:20 10° N 10:16:10 11° NNE 10:17:57 10° NE visible
03 Oct - 11:55:00 10° NNW 12:00:01 35° NE 12:04:38 10° ESE visible
03 Oct - 13:37:09 10° NW 13:42:10 41° WSW 13:46:45 10° S daylight
04 Oct - 02:28:38 10° SE 02:31:44 15° ESE 02:34:52 10° ENE visible
04 Oct - 04:07:04 10° SSW 04:12:58 83° ESE 04:18:53 10° NE visible
04 Oct - 05:50:57 10° W 05:55:44 25° NW 06:00:28 10° NNE visible
04 Oct - 11:05:04 10° NNW 11:09:20 22° NE 11:13:20 10° E visible
04 Oct - 12:46:41 10° NW 12:52:07 81° WSW 12:57:02 10° SSE visible
04 Oct - 14:31:38 10° W 14:33:06 11° W 14:34:31 10° WSW daylight
05 Oct - 03:17:17 10° S 03:22:52 46° ESE 03:28:28 10° NE visible
05 Oct - 04:59:36 10° WSW 05:05:06 38° NW 05:10:32 10° NNE visible
05 Oct - 06:46:20 10° NW 06:48:51 13° NNW 06:51:20 10° N visible
05 Oct - 10:15:18 10° N 10:18:27 15° NNE 10:21:29 10° ENE visible
05 Oct - 11:56:28 10° NNW 12:01:50 55° NE 12:06:43 10° SE visible
05 Oct - 13:39:20 10° WNW 13:43:26 23° WSW 13:47:15 10° SSW daylight
